Location: Les Salelles
(44.4192°N, 4.1044°E)
Time: 16:19:57
(UTC+00:00)

Cosmos 1553 Rocket - Pass Details

Date: 20 January 2021
Orbit: 941 x 1008 km, 82.9° (Epoch: 25 February)

Event Time Altitude Azimuth Distance (km) Brightness Sun altitude
Rises 19:28:46 0° 351° (N) 3,750 7.2 -30.4°
Reaches altitude 10° 19:31:19 10° 351° (N) 2,794 6.5 -30.9°
Enters shadow 19:36:15 56° 346° (NNW) 1,188 4.4 -31.8°
